Location: Newark
(51.3318°N, 0.0053°E)
Time: 12:46:46
(UTC+00:00)

RS-44 - Pass Details

Date: 02 July 2022
Orbit: 1175 x 1510 km, 82.5° (Epoch: 07 August)

Event Time Altitude Azimuth Distance (km) Brightness Sun altitude
Rises 23:49:40 0° 277° (W) 4,509 ? -15.6°
Reaches altitude 10° 23:55:38 10° 309° (NW) 3,608 ? -15.7°
Maximum altitude 23:58:08 11° 327° (NNW) 3,526 ? -15.7°
Drops below altitude 10° 00:00:41 10° 344° (NNW) 3,654 ? -15.7°
Sets 00:06:54 0° 16° (NNE) 4,665 ? -15.7°
